[[{"header":{"parameterUnit":"m.s-1","parameterCategory":2,"la1":30.2991,"la2":30.254,"lo1":-89.0895,"lo2":-89.0444,"dy":0.0017,"dx":0.0017,"nx":28,"ny":28,"refTime":"2024-05-11T09:00:00:Z","depth":"0","parameterNumber":2,"parameterNumberName":"U-component_of_CURRENTS"},"data":[0,0,0,0,0,0,0,0,0,0,0,0,0,0,0,0,0,0,0,0,0,0,0,0,0,0,0,0,0,0,0,0,0,0,0,0,0,0,0,0,0,0,0,0,0,0,0,0,0,0,0,0,0,0,0,0,0,0,0.2634,0.2635,0,0.2646,0.2646,0.2646,0.2653,0.2654,0.2654,0.2654,0.2647,0.2646,0.2646,0,0,0,0,0,0,0,0,0,0,0,0,0,0.2591,0.2592,0.2634,0.2635,0.2635,0.2646,0.2646,0.2646,0.2653,0.2654,0.2654,0.2655,0.2647,0.2646,0.2646,0,0,0,0,0,0,0,0,0,0,0,0,0,0.2604,0.2592,0.2634,0.2643,0.2644,0.2646,0.2646,0.2646,0.2653,0.2654,0.2654,0.2655,0.2647,0.2646,0.2646,0.2629,0,0,0.2643,0.2643,0,0,0,0,0,0,0,0,0.2603,0.2605,0.2641,0.2642,0.2644,0.2652,0.2628,0.264,0.2653,0.2646,0.2654,0.2655,0.2649,0.2648,0.2644,0.2629,0.2628,0.2643,0.2642,0.2642,0.2642,0,0,0,0,0,0,0,0.2602,0.2604,0.2635,0.2642,0.2643,0.2638,0.264,0.263,0.2641,0.2646,0.2648,0.2655,0.2649,0.2645,0.2644,0.2628,0.2643,0.2642,0.2642,0.2641,0.2672,0.2673,0,0,0,0,0,0,0.2609,0.2604,0.2635,0.2636,0.2629,0.2638,0.2641,0.2646,0.2641,0.2642,0.2655,0.2655,0.2646,0.2645,0.2643,0.2677,0.2642,0.2641,0.2641,0.2671,0.2672,0.2674,0,0,0,0,0,0,0.2608,0.2612,0.2634,0.2623,0.2626,0.2639,0.2644,0.2646,0.2653,0.2648,0.2648,0.2662,0.2646,0.2645,0.2655,0.2674,0.2641,0.264,0.2669,0.2671,0.2673,0.2709,0,0,0,0,0,0,0.2607,0.2611,0.2614,0.2623,0.2627,0.2651,0.2644,0.2646,0.2658,0.2659,0.2654,0.2654,0.2646,0.2656,0.2654,0.2673,0.264,0.2667,0.267,0.2672,0.2706,0.2712,0.2717,0,0,0,0,0,0.2605,0.261,0.2614,0.2618,0.2632,0.2652,0.2653,0.2661,0.2658,0.2667,0.2667,0.2655,0.2671,0.2656,0.2653,0.2672,0.2666,0.2669,0.2672,0.2704,0.2711,0.2717,0,0,0,0,0,0,0.2592,0.2612,0.2617,0.2627,0.2646,0.2655,0.2662,0.2666,0.2671,0.267,0.2662,0.2662,0.2683,0.2673,0.2657,0.2692,0.267,0.2672,0.2695,0.2701,0.2707,0.2707,0.2639,0,0,0,0,0,0.2591,0.2601,0.2623,0.2632,0.2642,0.2651,0.2659,0.2666,0.2674,0.2677,0.2675,0.2678,0.269,0.2692,0.2697,0.2705,0.2717,0.272,0.2725,0.2729,0.273,0.277,0.2779,0.2683,0.2683,0.2683,0,0,0.2587,0.2601,0.2605,0.263,0.264,0.2657,0.2657,0.2674,0.2688,0.2674,0.2687,0.2694,0.2698,0.2717,0.2725,0.2711,0.2768,0.2733,0.2737,0.2735,0.2774,0.2784,0.2792,0.2685,0.2685,0.2685,0,0,0.2585,0.2599,0.2607,0.2626,0.2651,0.2662,0.2671,0.2687,0.2698,0.2712,0.2715,0.2736,0.2738,0.2753,0.2759,0.2795,0.2798,0.2801,0.2821,0.2861,0.2869,0.2876,0.292,0.293,0.28,0.28,0.28,0,0.258,0.2593,0.2613,0.263,0.2644,0.2667,0.268,0.2697,0.2715,0.2726,0.2723,0.2755,0.2757,0.2792,0.2809,0.2806,0.2831,0.2794,0.2868,0.2875,0.2882,0.2924,0.2936,0.2802,0.2802,0.2801,0.2801,0,0.2585,0.2599,0.2608,0.2636,0.2655,0.2672,0.2703,0.2722,0.2734,0.275,0.2788,0.2799,0.2819,0.2831,0.2828,0.2881,0.2886,0.2873,0.2849,0.2894,0.2936,0.2947,0.2805,0.2804,0.2803,0.2803,0,0,0.256,0.2602,0.2604,0.262,0.2659,0.2677,0.2706,0.2741,0.2774,0.2791,0.2828,0.2854,0.2866,0.2875,0.2886,0.2919,0.2992,0.2917,0.2918,0.2956,0.3092,0.31,0.3112,0.2995,0.2996,0.2998,0.3108,0,0.2557,0.2583,0.2605,0.2633,0.2651,0.2684,0.2717,0.2754,0.279,0.2836,0.2859,0.2904,0.2884,0.291,0.2937,0.2986,0.3021,0.2964,0.3046,0.3049,0.3047,0.3125,0.309,0.3185,0.3118,0.312,0.3122,0,0.2548,0.2572,0.259,0.2641,0.2653,0.2674,0.2734,0.2772,0.2842,0.2873,0.2913,0.2942,0.2999,0.2977,0.3067,0.3034,0.3063,0.3092,0.3097,0.3096,0.3077,0.3127,0.3207,0.3178,0.3139,0.3137,0.3136,0,0.2515,0.256,0.2571,0.2587,0.2648,0.2664,0.2705,0.2776,0.2812,0.2908,0.2946,0.3011,0.3056,0.3101,0.3152,0.3122,0.3254,0.3218,0.325,0.325,0.3231,0.3228,0.3286,0.3277,0.3277,0.3277,0.3277,0,0.2497,0.251,0.2559,0.2567,0.2597,0.2654,0.2697,0.2757,0.2837,0.2889,0.2965,0.3024,0.3091,0.3163,0.3191,0.3269,0.3286,0.3276,0.3287,0.3245,0.3241,0.3221,0.3186,0.3281,0.328,0.3279,0.3279,0,0.2449,0.248,0.25,0.2559,0.2576,0.2601,0.267,0.2709,0.2809,0.2881,0.2914,0.3046,0.317,0.3234,0.3337,0.333,0.3335,0.3414,0.3364,0.3367,0.3351,0.3318,0.3211,0.3113,0.3474,0.3475,0.3475,0,0.2422,0.2428,0.2474,0.2482,0.2501,0.2545,0.2571,0.2672,0.2717,0.2891,0.2921,0.3082,0.3179,0.3352,0.3415,0.3499,0.338,0.3483,0.3409,0.337,0.3343,0.3156,0.3066,0.3407,0.3408,0.3408,0.3408,0,0.2376,0.2389,0.2404,0.2421,0.2439,0.2461,0.2516,0.254,0.2673,0.2764,0.2906,0.3014,0.3227,0.3335,0.3464,0.3497,0.3355,0.3487,0.3462,0.3318,0.3102,0.3007,0.3316,0.3409,0.3409,0.3409,0.3409,0.3409,0.2333,0.2326,0.2345,0.2348,0.2366,0.2371,0.2364,0.2444,0.2519,0.264,0.2813,0.2966,0.3224,0.3428,0.3426,0.3477,0.3369,0.3438,0.3412,0.3233,0.3098,0.3414,0.3503,0.3503,0.3504,0.3504,0.3504,0,0.2274,0.2271,0.2273,0.2267,0.2243,0.2286,0.2313,0.2301,0.2357,0.2554,0.2681,0.2976,0.3151,0.3319,0.3509,0.3444,0.3224,0.3375,0.3123,0.3043,0.3378,0.3338,0.3376,0.3376,0.3376,0.3376,0.3376,0.3377,0.2246,0.2213,0.2205,0.214,0.2133,0.2076,0.2068,0.2089,0.2203,0.2374,0.2559,0.2758,0.3147,0.3463,0.3515,0.343,0.3165,0.3055,0.2972,0.3273,0.3276,0.3279,0.3234,0.325,0.325,0.253,0.2525,0.2522]},{"header":{"parameterUnit":"m.s-1","parameterCategory":2,"la1":30.2991,"la2":30.254,"lo1":-89.0895,"lo2":-89.0444,"dy":0.0017,"dx":0.0017,"nx":28,"ny":28,"refTime":"2024-05-11T09:00:00:Z","depth":"0","parameterNumber":3,"parameterNumberName":"V-component_of_CURRENTS"},"data":[0,0,0,0,0,0,0,0,0,0,0,0,0,0,0,0,0,0,0,0,0,0,0,0,0,0,0,0,0,0,0,0,0,0,0,0,0,0,0,0,0,0,0,0,0,0,0,0,0,0,0,0,0,0,0,0,0,0,0.0103,0.0102,0,0.0025,0.0024,0.0023,-0.0026,-0.0026,-0.0026,-0.0026,-0.0149,-0.0152,-0.0155,0,0,0,0,0,0,0,0,0,0,0,0,0,0.0162,0.0162,0.0103,0.0102,0.0101,0.0025,0.0024,0.0023,-0.0026,-0.0026,-0.0026,-0.0026,-0.0148,-0.0152,-0.0156,0,0,0,0,0,0,0,0,0,0,0,0,0,0.0115,0.0161,0.0103,0.0068,0.0064,0.0025,0.0024,0.0022,-0.0025,-0.0026,-0.0026,-0.0026,-0.0147,-0.0152,-0.0156,-0.0178,0,0,-0.017,-0.0172,0,0,0,0,0,0,0,0,0.0118,0.0113,0.0074,0.0071,0.0066,0.0009,-0.0001,-0.0047,-0.0025,0.0008,-0.0026,-0.0027,-0.01,-0.0109,-0.0122,-0.0184,-0.0189,-0.0171,-0.0173,-0.0175,-0.0177,0,0,0,0,0,0,0,0.0121,0.0116,0.0072,0.0073,0.0068,0.004,0.0033,-0.001,-0.0044,0.0005,0.0002,-0.0006,-0.0103,-0.0118,-0.0126,-0.0191,-0.0171,-0.0175,-0.0177,-0.0179,-0.0268,-0.0267,0,0,0,0,0,0,0.0135,0.0119,0.0074,0.0069,0.0092,0.0039,0.0032,0.0028,-0.0043,-0.0053,-0.0006,-0.0008,-0.011,-0.012,-0.013,-0.0151,-0.0175,-0.018,-0.0182,-0.0268,-0.0268,-0.0267,0,0,0,0,0,0,0.0136,0.0132,0.0077,0.0092,0.0084,0.0039,0.0034,0.0026,0.001,-0.0051,-0.0063,-0.0014,-0.011,-0.0124,-0.016,-0.0156,-0.0182,-0.0186,-0.0269,-0.0268,-0.0267,-0.0198,0,0,0,0,0,0,0.0138,0.0133,0.0135,0.0094,0.0083,0.006,0.0034,0.0025,0.0006,0.0002,-0.0061,-0.0073,-0.0112,-0.0153,-0.0164,-0.0163,-0.019,-0.0269,-0.0268,-0.0268,-0.0201,-0.0195,-0.019,0,0,0,0,0,0.0141,0.0147,0.0136,0.013,0.0088,0.0061,0.0053,0.0019,0.0006,0.0003,-0.0036,-0.0071,-0.0156,-0.0156,-0.017,-0.017,-0.027,-0.0269,-0.0268,-0.0203,-0.0196,-0.019,0,0,0,0,0,0,0.0173,0.0141,0.0129,0.0125,0.0098,0.0053,0.0047,0.0024,-0.0009,-0.0012,-0.0069,-0.0083,-0.0112,-0.0149,-0.0148,-0.0192,-0.0218,-0.0219,-0.0164,-0.0158,-0.0153,-0.0135,-0.0193,0,0,0,0,0,0.0182,0.018,0.0143,0.0141,0.0131,0.0091,0.0075,0.0054,0.0018,0.0003,-0.0039,-0.0083,-0.0119,-0.0144,-0.0181,-0.0209,-0.0241,-0.0217,-0.0212,-0.0207,-0.0201,-0.0241,-0.0238,-0.0264,-0.0264,-0.0264,0,0,0.0193,0.0177,0.0174,0.0148,0.0126,0.0117,0.0081,0.0064,0.0057,-0.0006,-0.0026,-0.0067,-0.0121,-0.0148,-0.0164,-0.018,-0.0216,-0.0206,-0.0202,-0.0198,-0.024,-0.0237,-0.0235,-0.0263,-0.0264,-0.0264,0,0,0.0217,0.0201,0.0208,0.0191,0.0165,0.014,0.0138,0.0098,0.008,0.0055,0.0013,-0.0023,-0.0081,-0.0118,-0.0145,-0.0135,-0.0183,-0.0146,-0.0111,-0.0149,-0.0147,-0.0146,-0.0178,-0.018,-0.0147,-0.0147,-0.0147,0,0.0232,0.0235,0.0205,0.0207,0.02,0.0155,0.016,0.0136,0.0089,0.008,0.0059,-0.0017,-0.0067,-0.0101,-0.0096,-0.0124,-0.0148,-0.013,-0.0142,-0.0141,-0.0141,-0.0175,-0.0178,-0.0143,-0.0144,-0.0144,-0.0145,0,0.0258,0.0261,0.0264,0.0255,0.0243,0.0241,0.0206,0.0194,0.0168,0.0139,0.0106,0.0041,-0.0003,-0.0026,-0.0061,-0.0084,-0.0102,-0.0127,-0.0155,-0.0134,-0.0171,-0.0176,-0.0139,-0.014,-0.0141,-0.0142,0,0,0.0294,0.0286,0.0288,0.0295,0.027,0.0265,0.0259,0.024,0.0242,0.0191,0.0187,0.0115,0.0081,0.0049,-0.0002,-0.0041,-0.0067,-0.0077,-0.0081,-0.0104,-0.0144,-0.0142,-0.0148,-0.0091,-0.0091,-0.0092,-0.0167,0,0.0325,0.0346,0.033,0.0351,0.0359,0.0327,0.033,0.0308,0.0279,0.0265,0.0197,0.017,0.0109,0.0092,0.0044,-0.0036,-0.0077,-0.0044,-0.0165,-0.0169,-0.0166,-0.0153,-0.0121,-0.0184,-0.0172,-0.0173,-0.0174,0,0.0358,0.0368,0.0396,0.0407,0.0409,0.0416,0.0418,0.0412,0.0379,0.0359,0.0316,0.0262,0.0199,0.0147,0.002,0.0046,-0.0039,-0.0107,-0.0112,-0.0138,-0.0176,-0.0205,-0.0194,-0.0341,-0.0182,-0.0181,-0.018,0,0.0403,0.0416,0.0444,0.0446,0.0449,0.0464,0.0465,0.0445,0.0456,0.042,0.0425,0.0333,0.0301,0.0182,0.0044,0.0031,-0.009,-0.0131,-0.0214,-0.0215,-0.0226,-0.0227,-0.0366,-0.0221,-0.0221,-0.0221,-0.0221,0,0.0443,0.0465,0.0471,0.0489,0.0532,0.0516,0.0557,0.0545,0.0543,0.0574,0.0481,0.0486,0.031,0.0219,0.0078,-0.0069,-0.0067,-0.0202,-0.0233,-0.02,-0.0198,-0.0357,-0.0465,-0.0224,-0.0223,-0.0223,-0.0222,0,0.0486,0.0488,0.0525,0.0544,0.0557,0.0589,0.0628,0.0655,0.0645,0.0685,0.068,0.06,0.0489,0.031,0.0121,-0.0012,-0.0261,-0.0221,-0.0165,-0.0187,-0.0405,-0.0509,-0.0712,-0.0803,-0.0331,-0.0331,-0.0332,0,0.0509,0.0534,0.0574,0.0604,0.0618,0.0663,0.0701,0.0709,0.0747,0.0765,0.0795,0.0704,0.0671,0.0397,0.0141,-0.0101,-0.0272,-0.0243,-0.0273,-0.0408,-0.0548,-0.063,-0.0699,-0.0264,-0.0264,-0.0264,-0.0264,0,0.0554,0.057,0.0601,0.0665,0.0712,0.077,0.0828,0.0877,0.0904,0.0947,0.0995,0.0974,0.0731,0.0516,0.0181,-0.0006,-0.0361,-0.0247,-0.0407,-0.0522,-0.0602,-0.0706,-0.0226,-0.0262,-0.0262,-0.0262,-0.0262,-0.0263,0.0592,0.0621,0.0665,0.0727,0.0786,0.0869,0.0928,0.1005,0.1094,0.1186,0.1163,0.1202,0.0885,0.0439,0.0148,-0.0328,-0.0375,-0.0461,-0.058,-0.0653,-0.0733,-0.0241,-0.0298,-0.0298,-0.0298,-0.0299,-0.0299,0,0.0631,0.0665,0.0722,0.0796,0.0868,0.0894,0.1007,0.1079,0.1204,0.1334,0.1397,0.1339,0.0899,0.0451,-0.019,-0.056,-0.0733,-0.0777,-0.0894,-0.0954,-0.0522,-0.0508,-0.0586,-0.0586,-0.0586,-0.0586,-0.0586,-0.0585,0.0652,0.0706,0.0733,0.085,0.0909,0.1012,0.1082,0.1202,0.1327,0.1513,0.1623,0.1679,0.1435,0.0166,-0.066,-0.0888,-0.1185,-0.1251,-0.1418,-0.1118,-0.1097,-0.1077,-0.1087,-0.1285,-0.1286,-0.1779,-0.1784,-0.1788]}],[{"header":{"parameterUnit":"m.s-1","parameterCategory":2,"la1":30.2991,"la2":30.254,"lo1":-89.0895,"lo2":-89.0444,"dy":0.0017,"dx":0.0017,"nx":28,"ny":28,"refTime":"2024-05-11T09:00:00:Z","depth":"2","parameterNumber":2,"parameterNumberName":"U-component_of_CURRENTS"},"data":[0,0,0,0,0,0,0,0,0,0,0,0,0,0,0,0,0,0,0,0,0,0,0,0,0,0,0,0,0,0,0,0,0,0,0,0,0,0,0,0,0,0,0,0,0,0,0,0,0,0,0,0,0,0,0,0,0,0,0.2583,0.2583,0,0.2593,0.2593,0.2593,0.2602,0.2603,0.2603,0.2604,0.2602,0.2602,0.2601,0,0,0,0,0,0,0,0,0,0,0,0,0,0.2544,0.2545,0.2583,0.2583,0.2584,0.2593,0.2593,0.2593,0.2602,0.2603,0.2603,0.2604,0.2602,0.2602,0.2601,0,0,0,0,0,0,0,0,0,0,0,0,0,0.2555,0.2545,0.2583,0.2592,0.2594,0.2593,0.2593,0.2593,0.2602,0.2603,0.2604,0.2604,0.2603,0.2602,0.2601,0.2584,0,0,0.2599,0.2599,0,0,0,0,0,0,0,0,0.2554,0.2556,0.259,0.2592,0.2593,0.26,0.2579,0.259,0.2602,0.2595,0.2604,0.2605,0.2602,0.2602,0.2597,0.2584,0.2584,0.2599,0.2599,0.2598,0.2598,0,0,0,0,0,0,0,0.2554,0.2556,0.2583,0.2591,0.2593,0.2587,0.2589,0.2581,0.2592,0.2596,0.2598,0.2604,0.2602,0.2598,0.2597,0.2584,0.2599,0.2598,0.2598,0.2598,0.2631,0.2633,0,0,0,0,0,0,0.256,0.2555,0.2583,0.2584,0.2579,0.2587,0.259,0.2594,0.2592,0.2594,0.2603,0.2604,0.2599,0.2598,0.2597,0.2634,0.2598,0.2598,0.2597,0.263,0.2632,0.2633,0,0,0,0,0,0,0.2559,0.2563,0.2583,0.2573,0.2575,0.2588,0.2593,0.2594,0.2604,0.2599,0.2599,0.2613,0.2599,0.2598,0.2611,0.2632,0.2597,0.2597,0.2629,0.2631,0.2632,0.2671,0,0,0,0,0,0,0.2558,0.2562,0.2566,0.2573,0.2576,0.2599,0.2593,0.2594,0.2607,0.2609,0.2607,0.2607,0.26,0.2612,0.261,0.263,0.2596,0.2627,0.2629,0.2632,0.2668,0.2674,0.2679,0,0,0,0,0,0.2557,0.2563,0.2566,0.257,0.2582,0.26,0.2601,0.261,0.2608,0.2618,0.2619,0.2608,0.2627,0.2612,0.261,0.263,0.2626,0.2629,0.2632,0.2665,0.2673,0.2679,0,0,0,0,0,0,0.2547,0.2565,0.2569,0.258,0.2597,0.2604,0.2611,0.2616,0.2622,0.2623,0.2616,0.2616,0.2639,0.2629,0.2614,0.265,0.2627,0.263,0.2654,0.2661,0.2666,0.2667,0.2596,0,0,0,0,0,0.2547,0.2557,0.2575,0.2585,0.2594,0.2603,0.261,0.2618,0.2626,0.263,0.2629,0.2633,0.2646,0.2649,0.2654,0.2664,0.2675,0.268,0.2686,0.269,0.2691,0.2729,0.2738,0.2643,0.2643,0.2643,0,0,0.2544,0.2557,0.2561,0.2584,0.2593,0.2609,0.2609,0.2626,0.264,0.2627,0.2642,0.2651,0.2654,0.2675,0.2684,0.267,0.2727,0.2694,0.2698,0.2696,0.2733,0.2742,0.2751,0.2645,0.2644,0.2644,0,0,0.2544,0.2557,0.2566,0.2584,0.2608,0.2617,0.2627,0.2642,0.2653,0.2668,0.2672,0.2694,0.2698,0.2712,0.2718,0.2755,0.2757,0.2762,0.2785,0.2822,0.283,0.2837,0.2878,0.2888,0.2762,0.2762,0.2762,0,0.254,0.2553,0.2572,0.2588,0.2601,0.2624,0.2637,0.2653,0.2671,0.2682,0.2681,0.2715,0.2717,0.2752,0.277,0.2767,0.2791,0.2757,0.2829,0.2836,0.2843,0.2883,0.2893,0.2764,0.2764,0.2763,0.2763,0,0.2546,0.256,0.257,0.2597,0.2615,0.2632,0.2661,0.268,0.2693,0.2709,0.2748,0.276,0.278,0.2793,0.2791,0.2844,0.2848,0.2834,0.281,0.2854,0.2894,0.2905,0.2767,0.2766,0.2766,0.2765,0,0,0.2523,0.2564,0.2567,0.2583,0.262,0.2637,0.2666,0.27,0.2732,0.2751,0.2788,0.2816,0.2829,0.2838,0.2849,0.2882,0.2954,0.288,0.2881,0.2917,0.3048,0.3046,0.3058,0.2955,0.2957,0.2959,0.3062,0,0.2521,0.2547,0.2568,0.2597,0.2614,0.2646,0.2678,0.2714,0.275,0.2795,0.2819,0.2864,0.2846,0.2874,0.2901,0.2947,0.2982,0.2927,0.3003,0.3005,0.2994,0.307,0.2833,0.2905,0.3073,0.3074,0.3076,0,0.2514,0.2536,0.2555,0.2605,0.2616,0.2638,0.2697,0.2734,0.2802,0.2833,0.2874,0.2903,0.296,0.2939,0.3026,0.2995,0.3023,0.3051,0.3055,0.3044,0.3023,0.2885,0.2918,0.3093,0.3092,0.3091,0.309,0,0.2482,0.2526,0.2538,0.2554,0.2613,0.263,0.2671,0.274,0.2775,0.287,0.2907,0.2971,0.3015,0.3058,0.3108,0.3079,0.3206,0.3169,0.3191,0.3191,0.2999,0.298,0.3227,0.3227,0.3227,0.3226,0.3226,0,0.2465,0.2478,0.2527,0.2536,0.2566,0.2622,0.2665,0.2724,0.2802,0.2852,0.2927,0.2982,0.3049,0.3118,0.3145,0.3215,0.3235,0.3217,0.3225,0.3009,0.299,0.3149,0.3139,0.323,0.3229,0.3229,0.3228,0,0.2418,0.245,0.247,0.2529,0.2546,0.2572,0.264,0.2678,0.2776,0.2846,0.2879,0.3004,0.3121,0.3183,0.3282,0.3271,0.3335,0.3346,0.3097,0.3075,0.3284,0.3275,0.3388,0.3389,0.339,0.3391,0.3391,0,0.2393,0.2399,0.2446,0.2454,0.2475,0.2519,0.2545,0.2644,0.2687,0.2854,0.2882,0.3035,0.3121,0.3281,0.3312,0.3382,0.3394,0.3187,0.3086,0.3308,0.3305,0.3294,0.3284,0.2847,0.2843,0.284,0.2838,0,0.2347,0.2362,0.2378,0.2396,0.2415,0.2436,0.2491,0.2514,0.2643,0.2726,0.2859,0.2956,0.3129,0.3119,0.3225,0.3219,0.316,0.3128,0.3423,0.2856,0.281,0.2803,0.2808,0.2809,0.2812,0.2814,0.2815,0.2817,0.2307,0.2301,0.2321,0.2326,0.2344,0.2348,0.2341,0.2412,0.2479,0.2571,0.2738,0.281,0.2905,0.2966,0.2918,0.2887,0.3101,0.2954,0.2958,0.2967,0.2898,0.2858,0.2853,0.2856,0.2859,0.2861,0.2863,0,0.2246,0.2247,0.2251,0.2247,0.222,0.2266,0.2291,0.2264,0.2304,0.2436,0.2531,0.2421,0.2468,0.2543,0.248,0.2531,0.2434,0.2412,0.2253,0.2289,0.2318,0.2208,0.1984,0.198,0.1977,0.1974,0,0,0.2218,0.2187,0.2179,0.2115,0.2112,0.2051,0.2042,0.2036,0.2094,0.2108,0.214,0.2345,0.2498,0.2193,0.2198,0.2076,0.2141,0.1993,0.2716,0.2566,0.259,0.2674,0.2553,0,0,0,0,0]},{"header":{"parameterUnit":"m.s-1","parameterCategory":2,"la1":30.2991,"la2":30.254,"lo1":-89.0895,"lo2":-89.0444,"dy":0.0017,"dx":0.0017,"nx":28,"ny":28,"refTime":"2024-05-11T09:00:00:Z","depth":"2","parameterNumber":3,"parameterNumberName":"V-component_of_CURRENTS"},"data":[0,0,0,0,0,0,0,0,0,0,0,0,0,0,0,0,0,0,0,0,0,0,0,0,0,0,0,0,0,0,0,0,0,0,0,0,0,0,0,0,0,0,0,0,0,0,0,0,0,0,0,0,0,0,0,0,0,0,0.003,0.0029,0,-0.0049,-0.005,-0.0051,-0.0099,-0.0099,-0.0099,-0.0099,-0.0221,-0.0224,-0.0227,0,0,0,0,0,0,0,0,0,0,0,0,0,0.0091,0.0091,0.003,0.0029,0.0028,-0.0049,-0.005,-0.0051,-0.0099,-0.0099,-0.0099,-0.0099,-0.022,-0.0224,-0.0228,0,0,0,0,0,0,0,0,0,0,0,0,0,0.0043,0.0091,0.003,-0.0004,-0.0008,-0.0049,-0.005,-0.0052,-0.0099,-0.0099,-0.0099,-0.01,-0.0219,-0.0224,-0.0228,-0.0251,0,0,-0.0242,-0.0244,0,0,0,0,0,0,0,0,0.0046,0.0041,0.0002,-0.0002,-0.0006,-0.0064,-0.0074,-0.012,-0.0099,-0.0065,-0.0099,-0.01,-0.0172,-0.0181,-0.0195,-0.0257,-0.0262,-0.0243,-0.0245,-0.0247,-0.0249,0,0,0,0,0,0,0,0.005,0.0044,-0.0002,0.0001,-0.0004,-0.0033,-0.004,-0.0083,-0.0117,-0.0068,-0.0071,-0.0079,-0.0175,-0.019,-0.0198,-0.0264,-0.0242,-0.0247,-0.0249,-0.0251,-0.034,-0.034,0,0,0,0,0,0,0.0063,0.0048,0.0001,-0.0004,0.002,-0.0034,-0.0041,-0.0046,-0.0116,-0.0126,-0.0079,-0.0081,-0.0182,-0.0193,-0.0203,-0.0222,-0.0247,-0.0252,-0.0254,-0.0341,-0.034,-0.034,0,0,0,0,0,0,0.0065,0.006,0.0004,0.002,0.0011,-0.0034,-0.0039,-0.0047,-0.0063,-0.0124,-0.0135,-0.0086,-0.0183,-0.0196,-0.0232,-0.0228,-0.0254,-0.0258,-0.0341,-0.0341,-0.034,-0.0269,0,0,0,0,0,0,0.0067,0.0061,0.0064,0.0021,0.001,-0.0013,-0.0039,-0.0048,-0.0067,-0.0071,-0.0134,-0.0145,-0.0184,-0.0225,-0.0237,-0.0235,-0.0262,-0.0342,-0.0341,-0.034,-0.0272,-0.0266,-0.0262,0,0,0,0,0,0.0069,0.0075,0.0064,0.0059,0.0015,-0.0013,-0.0021,-0.0054,-0.0067,-0.007,-0.0109,-0.0143,-0.0229,-0.0228,-0.0242,-0.0242,-0.0342,-0.0341,-0.034,-0.0275,-0.0268,-0.0262,0,0,0,0,0,0,0.0102,0.007,0.0057,0.0053,0.0026,-0.002,-0.0026,-0.0049,-0.0083,-0.0085,-0.0142,-0.0156,-0.0185,-0.0222,-0.022,-0.0264,-0.029,-0.0292,-0.0235,-0.0229,-0.0224,-0.0205,-0.0265,0,0,0,0,0,0.0112,0.011,0.0072,0.007,0.0059,0.0018,0.0003,-0.0019,-0.0054,-0.0069,-0.0112,-0.0155,-0.0192,-0.0216,-0.0254,-0.0282,-0.0313,-0.0289,-0.0284,-0.0279,-0.0273,-0.0311,-0.0308,-0.0337,-0.0337,-0.0337,0,0,0.0123,0.0106,0.0104,0.0077,0.0054,0.0045,0.0009,-0.0008,-0.0015,-0.0078,-0.0098,-0.0139,-0.0194,-0.022,-0.0237,-0.0252,-0.0287,-0.0278,-0.0274,-0.027,-0.0309,-0.0306,-0.0304,-0.0336,-0.0336,-0.0336,0,0,0.0147,0.0132,0.0138,0.0121,0.0094,0.0069,0.0067,0.0026,0.0009,-0.0017,-0.0059,-0.0095,-0.0153,-0.019,-0.0217,-0.0207,-0.0254,-0.0218,-0.0182,-0.0218,-0.0216,-0.0215,-0.0246,-0.0248,-0.0219,-0.0219,-0.0218,0,0.0163,0.0165,0.0135,0.0137,0.013,0.0084,0.009,0.0064,0.0018,0.0008,-0.0012,-0.0088,-0.0138,-0.0172,-0.0167,-0.0195,-0.0219,-0.0201,-0.021,-0.021,-0.0209,-0.0242,-0.0245,-0.0215,-0.0215,-0.0216,-0.0216,0,0.0189,0.0191,0.0195,0.0185,0.0173,0.017,0.0135,0.0123,0.0097,0.0069,0.0036,-0.0029,-0.0073,-0.0096,-0.0132,-0.0153,-0.0171,-0.0196,-0.0224,-0.0202,-0.0238,-0.0242,-0.021,-0.0211,-0.0212,-0.0213,0,0,0.0225,0.0216,0.0218,0.0226,0.02,0.0195,0.0189,0.017,0.0172,0.0122,0.0118,0.0046,0.0013,-0.0019,-0.0071,-0.0108,-0.0131,-0.0144,-0.0148,-0.0169,-0.0204,-0.0204,-0.0209,-0.0155,-0.0155,-0.0156,-0.0228,0,0.0256,0.0276,0.0261,0.0281,0.0288,0.0257,0.026,0.0238,0.021,0.0195,0.0128,0.0102,0.0042,0.0024,-0.0021,-0.0101,-0.014,-0.0109,-0.0227,-0.0231,-0.0229,-0.0213,-0.019,-0.0251,-0.0233,-0.0234,-0.0234,0,0.0289,0.0299,0.0327,0.0336,0.0338,0.0346,0.0348,0.0342,0.031,0.029,0.0249,0.0195,0.0134,0.0082,-0.0042,-0.0016,-0.0101,-0.0168,-0.0173,-0.0199,-0.0238,-0.0273,-0.0261,-0.0242,-0.0242,-0.0241,-0.024,0,0.0333,0.0346,0.0374,0.0376,0.0378,0.0394,0.0395,0.0376,0.0386,0.0352,0.0356,0.0268,0.0236,0.012,-0.0016,-0.003,-0.0147,-0.0188,-0.027,-0.0272,-0.0289,-0.029,-0.0275,-0.0275,-0.0275,-0.0275,-0.0274,0,0.0373,0.0395,0.0401,0.0419,0.0462,0.0445,0.0487,0.0475,0.0474,0.0504,0.0413,0.0416,0.0246,0.0157,0.0018,-0.0126,-0.0124,-0.0257,-0.0288,-0.0263,-0.0261,-0.0285,-0.0285,-0.0277,-0.0277,-0.0276,-0.0276,0,0.0416,0.0418,0.0454,0.0473,0.0486,0.0518,0.0557,0.0583,0.0575,0.0612,0.0609,0.0529,0.0419,0.0245,0.006,-0.007,-0.022,-0.0275,-0.0228,-0.0251,-0.0333,-0.0329,-0.0381,-0.0381,-0.0382,-0.0382,-0.0383,0,0.0438,0.0463,0.0503,0.0532,0.0546,0.0592,0.0629,0.0637,0.0674,0.069,0.0718,0.0629,0.0592,0.0324,0.0074,-0.0163,-0.0203,-0.0304,-0.0335,-0.0318,-0.0343,-0.0338,-0.0333,-0.0335,-0.0335,-0.0335,-0.0335,0,0.0483,0.0499,0.0529,0.0592,0.0639,0.0695,0.0752,0.08,0.0825,0.0865,0.0907,0.0883,0.0642,0.0416,0.009,-0.0081,-0.0266,-0.031,-0.0307,-0.0302,-0.0278,-0.0301,-0.0298,-0.0334,-0.0334,-0.0334,-0.0334,-0.0334,0.0519,0.0548,0.0591,0.0652,0.0711,0.0791,0.0849,0.0918,0.1,0.1066,0.1048,0.1028,0.0771,0.0365,0.0071,-0.0254,-0.0247,-0.0365,-0.0365,-0.0364,-0.0336,-0.0313,-0.0371,-0.0371,-0.0371,-0.0371,-0.0371,0,0.0555,0.0589,0.0646,0.0719,0.0786,0.0816,0.0924,0.0978,0.1087,0.1164,0.1204,0.0978,0.0735,0.0428,-0.0038,-0.0312,-0.0351,-0.041,-0.039,-0.0388,-0.0387,-0.036,-0.0402,-0.0403,-0.0404,-0.0404,0,0,0.0574,0.0625,0.0651,0.0763,0.0824,0.0918,0.0984,0.1069,0.1143,0.121,0.1222,0.1205,0.0852,0.0517,0.0138,-0.013,-0.0205,-0.0196,-0.0142,-0.0073,-0.0069,-0.0331,-0.0283,0,0,0,0,0]}],[{"header":{"parameterUnit":"m.s-1","parameterCategory":2,"la1":30.2991,"la2":30.254,"lo1":-89.0895,"lo2":-89.0444,"dy":0.0017,"dx":0.0017,"nx":28,"ny":28,"refTime":"2024-05-11T09:00:00:Z","depth":"4","parameterNumber":2,"parameterNumberName":"U-component_of_CURRENTS"},"data":[0,0,0,0,0,0,0,0,0,0,0,0,0,0,0,0,0,0,0,0,0,0,0,0,0,0,0,0,0,0,0,0,0,0,0,0,0,0,0,0,0,0,0,0,0,0,0,0,0,0,0,0,0,0,0,0,0,0,0.1752,0.1753,0,0.1792,0.1793,0.1793,0.1847,0.1848,0.1849,0.185,0.1925,0.1925,0.1926,0,0,0,0,0,0,0,0,0,0,0,0,0,0.169,0.1691,0.1752,0.1753,0.1754,0.1792,0.1793,0.1793,0.1847,0.1848,0.185,0.1851,0.1924,0.1925,0.1926,0,0,0,0,0,0,0,0,0,0,0,0,0,0.172,0.1691,0.1752,0.1787,0.1791,0.1792,0.1793,0.1793,0.1847,0.1848,0.185,0.1852,0.1924,0.1925,0.1927,0.1902,0,0,0.1931,0.1931,0,0,0,0,0,0,0,0,0.1718,0.1722,0.1781,0.1784,0.1789,0.1819,0.1798,0.1832,0.1846,0.1823,0.185,0.1852,0.1893,0.1897,0.1897,0.1905,0.1908,0.1931,0.1932,0.1932,0.1933,0,0,0,0,0,0,0,0.1716,0.172,0.1766,0.1782,0.1786,0.179,0.1796,0.1804,0.1847,0.1825,0.183,0.1837,0.1895,0.1895,0.1899,0.1909,0.1931,0.1932,0.1933,0.1934,0.2034,0.2036,0,0,0,0,0,0,0.1716,0.1718,0.1765,0.1767,0.176,0.179,0.1797,0.1805,0.1846,0.1854,0.1836,0.184,0.1892,0.1897,0.1902,0.1994,0.1932,0.1934,0.1935,0.2032,0.2034,0.2036,0,0,0,0,0,0,0.1714,0.1719,0.1763,0.1745,0.1752,0.179,0.1799,0.1805,0.1849,0.1854,0.1863,0.1878,0.1893,0.19,0.1951,0.1993,0.1934,0.1936,0.203,0.2033,0.2035,0.2102,0,0,0,0,0,0,0.1712,0.1719,0.1742,0.1746,0.1753,0.1795,0.1798,0.1805,0.1849,0.1856,0.1892,0.1898,0.1895,0.1949,0.1952,0.1994,0.1937,0.2028,0.2031,0.2034,0.2098,0.2107,0.2115,0,0,0,0,0,0.171,0.173,0.1743,0.1749,0.1778,0.1797,0.1801,0.1831,0.185,0.1875,0.1904,0.1899,0.1973,0.1951,0.1955,0.1998,0.2026,0.203,0.2034,0.2094,0.2105,0.2114,0,0,0,0,0,0,0.1716,0.1737,0.1752,0.1779,0.1802,0.1808,0.1837,0.1853,0.1892,0.1912,0.1917,0.1925,0.1986,0.1982,0.1957,0.2038,0.2001,0.2006,0.2045,0.2055,0.2064,0.2059,0.1938,0,0,0,0,0,0.1726,0.1752,0.1768,0.1795,0.181,0.1831,0.185,0.1869,0.1895,0.1916,0.194,0.1969,0.1996,0.202,0.2038,0.2078,0.2077,0.211,0.2119,0.2126,0.2126,0.2159,0.2171,0.205,0.205,0.205,0,0,0.1736,0.1753,0.1769,0.18,0.1821,0.1845,0.1848,0.1888,0.1917,0.1916,0.1979,0.2001,0.2013,0.2062,0.2089,0.2072,0.2164,0.2131,0.2137,0.2133,0.2165,0.2176,0.2187,0.2052,0.2052,0.2052,0,0,0.1753,0.1786,0.1809,0.1832,0.1873,0.1883,0.1905,0.1935,0.1967,0.2016,0.2028,0.2076,0.2116,0.2133,0.2145,0.221,0.2206,0.2228,0.2271,0.2304,0.2314,0.2323,0.235,0.2361,0.2235,0.2235,0.2235,0,0.1768,0.1795,0.182,0.1846,0.1871,0.1906,0.1933,0.1963,0.201,0.2037,0.2052,0.2128,0.2145,0.2196,0.2226,0.2229,0.2248,0.223,0.2315,0.2323,0.2331,0.2357,0.2367,0.2239,0.2238,0.2238,0.2237,0,0.1786,0.1825,0.1844,0.1887,0.1917,0.1951,0.1988,0.2034,0.2078,0.2103,0.2179,0.2206,0.2249,0.2271,0.2271,0.2341,0.2337,0.2319,0.2286,0.2347,0.237,0.238,0.2244,0.2243,0.2241,0.224,0,0,0.1769,0.1842,0.1853,0.1884,0.1944,0.1967,0.2026,0.2077,0.2128,0.2184,0.2242,0.23,0.2326,0.2341,0.2358,0.2395,0.2473,0.2392,0.2392,0.2414,0.2557,0.2414,0.241,0.2479,0.248,0.2482,0.2556,0,0.1779,0.1832,0.1867,0.1928,0.1957,0.201,0.2061,0.2118,0.2176,0.2244,0.2286,0.2354,0.235,0.2394,0.2428,0.2465,0.2502,0.2455,0.2498,0.2499,0.236,0.2417,0.2488,0.2563,0.2566,0.2567,0.2568,0,0.1774,0.1815,0.1871,0.1953,0.1973,0.202,0.2111,0.2164,0.2255,0.2304,0.237,0.2408,0.2481,0.2468,0.2552,0.2529,0.2551,0.257,0.2573,0.2417,0.2373,0.2487,0.2586,0.2585,0.2583,0.2582,0.2581,0,0.1731,0.1815,0.1864,0.1891,0.1986,0.2034,0.2096,0.2189,0.2236,0.2356,0.2402,0.2484,0.2541,0.2582,0.2623,0.2606,0.2704,0.2674,0.2562,0.2553,0.2629,0.2619,0.2727,0.2727,0.2726,0.2726,0.2726,0,0.1704,0.1749,0.186,0.1885,0.1955,0.2034,0.2115,0.219,0.2289,0.2342,0.2439,0.2484,0.2577,0.2633,0.2654,0.2637,0.2728,0.2574,0.2561,0.2658,0.265,0.2637,0.2626,0.2729,0.2728,0.2728,0.2727,0,0.1638,0.1711,0.1776,0.1894,0.1935,0.199,0.2108,0.2158,0.2277,0.2349,0.239,0.2507,0.2587,0.2653,0.2733,0.2661,0.2672,0.2643,0.2758,0.2749,0.2492,0.2484,0.2515,0.251,0.2506,0.2503,0.25,0,0.1603,0.1633,0.1766,0.1805,0.1865,0.1957,0.2009,0.2136,0.2179,0.2338,0.2352,0.248,0.2542,0.2531,0.2625,0.2652,0.2623,0.2605,0.2525,0.2485,0.2471,0.2468,0.2465,0.2494,0.2493,0.2492,0.2491,0,0.1535,0.1602,0.1656,0.1739,0.1807,0.1861,0.195,0.1959,0.2098,0.2219,0.2254,0.2296,0.238,0.2436,0.2479,0.2493,0.26,0.2564,0.2571,0.2497,0.2461,0.245,0.2451,0.2478,0.248,0.2481,0.2482,0,0.149,0.151,0.1595,0.1649,0.1727,0.1743,0.1801,0.1845,0.1899,0.2061,0.2075,0.222,0.2349,0.2355,0.2398,0.2401,0.2361,0.2271,0.2292,0.2308,0.2207,0.213,0.2037,0,0,0,0,0,0.1433,0.1444,0.1494,0.1543,0.1612,0.1657,0.1747,0.1804,0.1929,0.1897,0.1974,0.2043,0.2102,0.2185,0.2148,0.2328,0.2383,0.2276,0.2292,0.2405,0.2421,0.2321,0,0,0,0,0,0,0.1395,0.1443,0.1457,0.144,0.1452,0.151,0.1561,0.1648,0.1632,0.1771,0.1814,0.1925,0.2019,0.2105,0.2112,0.2138,0.2106,0.2371,0.2366,0.2397,0.2411,0.2423,0.2326,0,0,0,0,0]},{"header":{"parameterUnit":"m.s-1","parameterCategory":2,"la1":30.2991,"la2":30.254,"lo1":-89.0895,"lo2":-89.0444,"dy":0.0017,"dx":0.0017,"nx":28,"ny":28,"refTime":"2024-05-11T09:00:00:Z","depth":"4","parameterNumber":3,"parameterNumberName":"V-component_of_CURRENTS"},"data":[0,0,0,0,0,0,0,0,0,0,0,0,0,0,0,0,0,0,0,0,0,0,0,0,0,0,0,0,0,0,0,0,0,0,0,0,0,0,0,0,0,0,0,0,0,0,0,0,0,0,0,0,0,0,0,0,0,0,-0.002,-0.002,0,-0.0082,-0.0082,-0.0083,-0.0122,-0.0122,-0.0123,-0.0123,-0.0225,-0.0228,-0.023,0,0,0,0,0,0,0,0,0,0,0,0,0,0.0027,0.0026,-0.002,-0.002,-0.0021,-0.0082,-0.0082,-0.0083,-0.0122,-0.0122,-0.0123,-0.0123,-0.0225,-0.0228,-0.0231,0,0,0,0,0,0,0,0,0,0,0,0,0,-0.001,0.0026,-0.002,-0.0048,-0.0051,-0.0081,-0.0082,-0.0084,-0.0122,-0.0122,-0.0123,-0.0123,-0.0224,-0.0227,-0.0231,-0.0249,0,0,-0.0243,-0.0244,0,0,0,0,0,0,0,0,-0.0008,-0.0012,-0.0043,-0.0046,-0.0049,-0.0094,-0.0104,-0.0141,-0.0122,-0.0095,-0.0123,-0.0123,-0.0185,-0.0192,-0.0203,-0.0253,-0.0258,-0.0243,-0.0245,-0.0247,-0.0248,0,0,0,0,0,0,0,-0.0005,-0.001,-0.0045,-0.0044,-0.0048,-0.007,-0.0076,-0.0111,-0.0139,-0.0098,-0.0101,-0.0107,-0.0187,-0.0199,-0.0206,-0.0259,-0.0243,-0.0246,-0.0249,-0.025,-0.0329,-0.0329,0,0,0,0,0,0,0.0005,-0.0007,-0.0043,-0.0046,-0.0029,-0.0071,-0.0077,-0.008,-0.0138,-0.0146,-0.0107,-0.0109,-0.0192,-0.0201,-0.0209,-0.0227,-0.0247,-0.0251,-0.0253,-0.0329,-0.0329,-0.0329,0,0,0,0,0,0,0.0006,0.0003,-0.004,-0.0028,-0.0035,-0.0071,-0.0074,-0.0081,-0.0094,-0.0144,-0.0153,-0.0113,-0.0193,-0.0204,-0.0236,-0.0231,-0.0252,-0.0256,-0.0329,-0.0329,-0.0329,-0.0266,0,0,0,0,0,0,0.0008,0.0004,0.0006,-0.0027,-0.0035,-0.0053,-0.0074,-0.0082,-0.0097,-0.0101,-0.0153,-0.0162,-0.0194,-0.023,-0.024,-0.0237,-0.0259,-0.033,-0.0329,-0.0329,-0.0269,-0.0264,-0.026,0,0,0,0,0,0.001,0.0015,0.0007,0.0002,-0.0031,-0.0053,-0.0059,-0.0086,-0.0097,-0.01,-0.0133,-0.0161,-0.0235,-0.0233,-0.0245,-0.0243,-0.033,-0.0329,-0.0329,-0.0271,-0.0265,-0.026,0,0,0,0,0,0,0.0035,0.001,0.0001,-0.0002,-0.0023,-0.0059,-0.0063,-0.0083,-0.0111,-0.0114,-0.0161,-0.0173,-0.0199,-0.023,-0.0227,-0.0264,-0.0286,-0.0288,-0.0238,-0.0233,-0.0229,-0.021,-0.0262,0,0,0,0,0,0.0043,0.0042,0.0013,0.0011,0.0003,-0.0029,-0.0041,-0.0059,-0.0088,-0.0101,-0.0137,-0.0174,-0.0206,-0.0225,-0.0258,-0.0281,-0.0306,-0.0287,-0.0283,-0.0279,-0.0272,-0.03,-0.0298,-0.0327,-0.0327,-0.0327,0,0,0.0051,0.0039,0.0038,0.0017,-0.0001,-0.0006,-0.0037,-0.005,-0.0055,-0.0109,-0.0125,-0.0162,-0.0208,-0.023,-0.0245,-0.0256,-0.0283,-0.0278,-0.0274,-0.0269,-0.03,-0.0297,-0.0294,-0.0327,-0.0327,-0.0327,0,0,0.0071,0.0059,0.0066,0.0053,0.0032,0.0012,0.0011,-0.0022,-0.0036,-0.0058,-0.0095,-0.0125,-0.0176,-0.0205,-0.0227,-0.022,-0.0258,-0.0232,-0.0198,-0.0225,-0.0223,-0.0221,-0.0245,-0.0246,-0.0231,-0.023,-0.023,0,0.0083,0.0087,0.0063,0.0067,0.0062,0.0025,0.0031,0.0011,-0.0028,-0.0035,-0.0054,-0.012,-0.0162,-0.0187,-0.0185,-0.021,-0.0229,-0.0212,-0.0218,-0.0217,-0.0216,-0.0241,-0.0243,-0.0227,-0.0228,-0.0228,-0.0228,0,0.0105,0.011,0.0113,0.0108,0.01,0.0098,0.0072,0.0062,0.004,0.0018,-0.001,-0.0066,-0.0102,-0.0123,-0.0154,-0.0168,-0.0185,-0.0207,-0.0228,-0.0209,-0.0237,-0.024,-0.0223,-0.0224,-0.0225,-0.0226,0,0,0.013,0.013,0.0132,0.014,0.0123,0.012,0.0119,0.0106,0.0111,0.0067,0.0068,0.0005,-0.0023,-0.005,-0.0095,-0.0125,-0.0141,-0.0158,-0.0161,-0.0174,-0.0197,-0.0194,-0.0197,-0.0162,-0.0162,-0.0162,-0.0218,0,0.0155,0.0176,0.0167,0.0188,0.0196,0.0175,0.0181,0.0166,0.0144,0.0135,0.008,0.0058,0.0004,-0.0011,-0.0048,-0.0117,-0.0146,-0.0124,-0.022,-0.0222,-0.0215,-0.0199,-0.0163,-0.022,-0.0221,-0.0221,-0.0222,0,0.018,0.0191,0.0219,0.0235,0.0239,0.025,0.0258,0.0257,0.0236,0.022,0.0188,0.0142,0.0093,0.0046,-0.0056,-0.0038,-0.0108,-0.0165,-0.0169,-0.0189,-0.0224,-0.0245,-0.0227,-0.0227,-0.0226,-0.0226,-0.0226,0,0.0209,0.0228,0.0255,0.0259,0.0271,0.0289,0.0296,0.0287,0.0299,0.0277,0.0281,0.021,0.0183,0.0087,-0.0032,-0.0044,-0.0142,-0.0175,-0.0239,-0.024,-0.0255,-0.0256,-0.0243,-0.0243,-0.0243,-0.0243,-0.0242,0,0.0235,0.0257,0.0276,0.0292,0.0335,0.033,0.0373,0.0368,0.0375,0.04,0.0331,0.0329,0.0193,0.0116,-0.0001,-0.012,-0.012,-0.0225,-0.0251,-0.0228,-0.0225,-0.0257,-0.0258,-0.0245,-0.0244,-0.0244,-0.0243,0,0.0258,0.0268,0.0304,0.0334,0.0351,0.0383,0.043,0.0456,0.0457,0.0489,0.0488,0.0422,0.0324,0.0184,0.0029,-0.007,-0.0194,-0.0239,-0.0191,-0.0214,-0.0283,-0.028,-0.0314,-0.0314,-0.0314,-0.0314,-0.0314,0,0.0268,0.0291,0.0341,0.0371,0.039,0.0439,0.0477,0.0497,0.0528,0.0545,0.0563,0.049,0.0427,0.0227,0.0063,-0.0149,-0.0189,-0.0256,-0.0283,-0.0267,-0.0289,-0.0286,-0.0282,-0.0315,-0.0315,-0.0315,-0.0315,0,0.0289,0.0311,0.0342,0.0405,0.0454,0.0511,0.0567,0.0597,0.0628,0.0635,0.0635,0.0531,0.0427,0.0248,0.0088,-0.0072,-0.0214,-0.0259,-0.026,-0.0287,-0.0269,-0.029,-0.0286,-0.0316,-0.0316,-0.0316,-0.0316,0,0.0306,0.0331,0.0376,0.0431,0.0497,0.056,0.059,0.0635,0.0669,0.0689,0.069,0.0576,0.0511,0.0288,0.0138,-0.0013,-0.0068,-0.0133,-0.0142,-0.0144,-0.0087,-0.0039,-0.0028,0,0,0,0,0,0.0316,0.0342,0.0395,0.0456,0.0524,0.0562,0.0639,0.0663,0.0702,0.0715,0.0707,0.0613,0.0408,0.0316,0.0167,0.01,-0.0116,-0.0084,-0.0202,-0.032,-0.0319,-0.0282,0,0,0,0,0,0,0.0319,0.0365,0.0389,0.0468,0.0512,0.059,0.064,0.0668,0.0676,0.0697,0.0595,0.0561,0.0359,0.0496,0.0161,0.0114,0.0014,-0.0175,-0.0179,-0.0321,-0.032,-0.0319,-0.0281,0,0,0,0,0]}]]